Zurück zum Katalog

GALILEO 31

10D

AktivNavigationMEO
NORAD 61183·PAYLOAD·🇪🇺 EU

Gestartet Sep 17, 2024 von Cape Canaveral Space Force Station

Loading…

Nächste Überflüge (nächste 24 Stunden)

TLE

AktuellSource: CelesTrak SupGP

Epoche: Sep 13, 2026, 23:59 UTC

1 61183C 24167B   26256.99979167  .00000000  00000+0  00000+0 0  2561
2 61183  55.1641 218.8856 0002352 248.6533 317.7362  1.70473675    14

Verfolge GALILEO 31 in Echtzeit mit AllMySat

Download on the App Store